EGACEGBB

Guest
Details From EGAC - Belfast City
To EGBB - Birmingham
Flight Number -
Tags decoded
Created
Modified
Stats Distance 199 nm / 368 km
Max Altitude 0 ft / 0 m
Waypoints 4
Social Downloads 1
Likes 0
Share VATSIM

Download

Looking for another format? Having issues loading an existing format? Contact us
Advertisement - Login to hide

Notes

Requested: EGAC DUFFY UL15 AMPIT CHASE EGBB Unmatched points: UL15 AMPIT

Route

EGAC DUFFY CHASE EGBB

ID Type Via Altitude Latitude Longitude Leg Dist Tot Dist Heading (true) Name
O EGAC APT - 0 ft / 0 m 54.61811˚ -5.87258˚ - 0 nm - Belfast City
DUFFY FIX - 0 ft / 0 m 54.51472˚ -5.86083˚ 6 nm 6 nm 176° / 176° -
CHASE FIX - 0 ft / 0 m 52.61333˚ -1.91722˚ 181 nm 187 nm 127° / 131° -
O EGBB APT - 0 ft / 0 m 52.45597˚ -1.75038˚ 11 nm 198 nm 147° / 147° Birmingham

Altitude Profile

Advertisement - Login to hide

Weather


0- 5 10 15 20 25 30 35+ Temperature / ° C

Clouds and Precipitation
Forecast for 2017-12-13 12:00 UTC. Updated 2 hours ago

Ground ~20,000 ft ~40,000 ft Winds

EGAC

Details ICAO EGAC (BHD)
Name Belfast City
Region United Kingdom
Timezone Europe/London (UTC+0.0)
Stats Elevation 15 ft / 5 m (AMSL)
Location 54.618108° -5.872575°
Runways 1
Magnetic Variation 3.091° W

METAR

EGAC 131050Z 26016KT 9999 FEW012 FEW028CB 05/03 Q0988

Decode

TAF

Not found

Departure Runways

ID Width Length Bearing (true) Bearing (mag) Surface Threshold Offset Overrun Length
04 148 ft / 45 m 6,009 ft / 1,832 m 34.93° 38.02° Asphalt 302 ft / 92 m 0 ft / 0 m
22 148 ft / 45 m 6,009 ft / 1,832 m 214.94° 218.03° Asphalt 0 ft / 0 m 0 ft / 0 m

EGBB

Details ICAO EGBB (BHX)
Name Birmingham
Region United Kingdom
Timezone Europe/London (UTC+0.0)
Stats Elevation 327 ft / 100 m (AMSL)
Location 52.455966° -1.750378°
Runways 1
Magnetic Variation 1.141° W

METAR

EGBB 131050Z 20008KT 8000 VCSH FEW008 BKN026 05/04 Q0994

Decode

TAF

TAF AMD EGBB 130840Z 1308/1406 19009KT 9999 SCT030 TEMPO 1308/1314 6000 SHRA BKN005 PROB30 TEMPO 1309/1313 26016G26KT 4000 +SHRA BKN002 TEMPO 1317/1406 7000 SHRA BKN008 PROB30 TEMPO 1318/1406 28018G28KT 1400 +SHRASN BKN002

Decode

Destination Runways

ID Width Length Bearing (true) Bearing (mag) Surface Threshold Offset Overrun Length
15 151 ft / 46 m 8,477 ft / 2,584 m 145.87° 147.01° Asphalt 925 ft / 282 m 0 ft / 0 m
33 151 ft / 46 m 8,477 ft / 2,584 m 325.89° 327.03° Asphalt 958 ft / 292 m 0 ft / 0 m

Approach Navaids

Runway Type Ident Frequency Range Bearing (true) Bearing (mag) Slope Elevation
15 Localiser IBIR 110.10 MHz 18 nm / 33 km 145.89° 147.03° - 325 ft / 99 m (AMSL)
15 Glidescope IBIR 110.10 MHz 10 nm / 19 km 145.88° 147.02° 3.00° 325 ft / 99 m (AMSL)
15 DME IBIR 110.10 MHz 18 nm / 33 km - - - 349 ft / 106 m (AMSL)
33 Localiser IBM 110.10 MHz 18 nm / 33 km 325.87° 327.01° - 325 ft / 99 m (AMSL)
33 Glidescope IBM 110.10 MHz 10 nm / 19 km 325.88° 327.02° 3.00° 325 ft / 99 m (AMSL)
33 DME IBM 110.10 MHz 18 nm / 33 km - - - 327 ft / 100 m (AMSL)

Popular Alternatives